Patrick Air Force Base, FL

11:07 PM EDT on September 30, 2016 (GMT -0400)
Patrick Air Force Base

Weather History for KCOF - May, 2013

Change the Weather History Date:

Wednesday, May 22, 2013

  Actual Average Record
Temperature  
Mean Temperature 76 °F -  
Max Temperature 81 °F 82 °F 91 °F (2016)
Min Temperature 73 °F 71 °F 68 °F (2000)
Cooling Degree Days 12    
Growing Degree Days 26 (Base 50)    
Moisture  
Dew Point 71 °F    
Average Humidity 83    
Maximum Humidity 93    
Minimum Humidity 74    
Precipitation  
Precipitation 0.01 in - - ()
Sea Level Pressure  
Sea Level Pressure 29.98 in    
Wind  
Wind Speed 6 mph (SE)    
Max Wind Speed 14 mph    
Max Gust Speed -    
Visibility 10 miles    
Events Rain , Thunderstorm    
Averages and records for this station are not official NWS values.
T = Trace of Precipitation, MM = Missing Value Source: NWS Daily Summary

Daily Weather History Graph

Daily Weather History Graph

Search for Another Location

Airport or City:

Trip Planner

Search our weather history database for the weather conditions in past years. The results will help you decide how hot, cold, wet, or windy it might be!

Date:

Astronomy

May. 22, 2013 Rise Set
Actual Time 6:28 AM EDT 8:09 PM EDT
Civil Twilight 6:02 AM EDT 8:35 PM EDT
Nautical Twilight 5:31 AM EDT 9:07 PM EDT
Astronomical Twilight 4:58 AM EDT 9:39 PM EDT
Moon 5:40 PM EDT (5/22) 4:18 AM EDT (5/22)
Length of Visible Light 14h 33m
Length of Day
13h 41m
Waxing Gibbous, 91% of the Moon is Illuminated
May 22
Waxing Gibbous
May 25
Full
May 31
Last Quarter
Jun 8
New
Jun 16
First Quarter

Hourly Weather History & Observations

Time (EDT) Temp. Heat Index Dew Point Humidity Pressure Visibility Wind Dir Wind Speed Gust Speed Precip Events Conditions
12:58 AM 75.6 °F - 70.7 °F 85% 29.99 in 10.0 mi SSE 9.2 mph - N/A   Clear
1:58 AM 75.9 °F - 70.7 °F 84% 29.99 in 10.0 mi SSE 8.1 mph - N/A   Scattered Clouds
2:58 AM 75.6 °F - 70.2 °F 83% 29.96 in 10.0 mi SSE 5.8 mph - N/A   Clear
3:58 AM 75.6 °F - 70.9 °F 85% 29.96 in 10.0 mi South 3.5 mph - N/A   Scattered Clouds
4:58 AM 74.5 °F - 70.7 °F 88% 29.96 in 10.0 mi SSW 3.5 mph - N/A   Partly Cloudy
5:58 AM 73.4 °F - 70.7 °F 91% 29.96 in 10.0 mi South 2.3 mph - N/A   Clear
6:58 AM 73.2 °F - 71.1 °F 93% 29.98 in 10.0 mi SW 2.3 mph - N/A   Clear
7:58 AM 76.1 °F - 71.6 °F 86% 29.99 in 10.0 mi South 1.2 mph - N/A   Clear
8:58 AM 78.3 °F - 71.2 °F 79% 29.99 in 10.0 mi ESE 3.5 mph - N/A   Partly Cloudy
9:53 AM 80.6 °F 84.6 °F 71.6 °F 74% 29.98 in 10.0 mi East 5.8 mph - N/A   Mostly Cloudy
9:58 AM 79.9 °F - 72.0 °F 77% 29.99 in 10.0 mi East 4.6 mph - N/A   Mostly Cloudy
10:13 AM 80.6 °F 85.4 °F 73.4 °F 79% 29.98 in 10.0 mi East 5.8 mph - N/A   Mostly Cloudy
10:58 AM 80.4 °F 84.8 °F 72.9 °F 78% 30.01 in 10.0 mi East 6.9 mph - N/A   Clear
11:32 AM 77.0 °F - 71.6 °F 83% 30.00 in 10.0 mi Variable 3.5 mph - N/A   Light Drizzle
11:42 AM 75.2 °F - 71.6 °F 89% 30.00 in 10.0 mi WSW 3.5 mph - N/A Rain Light Rain
11:47 AM 75.2 °F - 71.6 °F 89% 30.00 in 10.0 mi SW 5.8 mph - N/A Rain Light Rain
11:57 AM 75.2 °F - 71.6 °F 89% 30.00 in 10.0 mi Calm Calm - N/A Rain Light Rain
11:58 AM 75.4 °F - 71.6 °F 88% 30.01 in 10.0 mi Calm Calm - 0.01 in Rain Light Rain
12:07 PM 75.2 °F - 71.6 °F 89% 30.00 in 10.0 mi Calm Calm - N/A   Partly Cloudy
12:58 PM 79.5 °F - 72.1 °F 78% 30.01 in 10.0 mi East 8.1 mph - 0.00 in   Clear
1:58 PM 79.9 °F - 72.1 °F 77% 29.99 in 10.0 mi ESE 10.4 mph - N/A   Clear
2:58 PM 79.3 °F - 71.8 °F 78% 29.98 in 10.0 mi SE 9.2 mph - N/A   Partly Cloudy
3:58 PM 78.8 °F - 70.7 °F 76% 29.96 in 10.0 mi SE 6.9 mph - N/A   Clear
4:17 PM 78.8 °F - 71.6 °F 78% 29.93 in 10.0 mi East 12.7 mph - N/A   Light Drizzle
4:32 PM 77.0 °F - 71.6 °F 83% 29.93 in 10.0 mi East 10.4 mph - N/A Thunderstorm Partly Cloudy
4:58 PM 79.0 °F - 71.8 °F 78% 29.95 in 10.0 mi ESE 11.5 mph - 0.00 in   Partly Cloudy
5:58 PM 77.5 °F - 71.2 °F 81% 29.95 in 10.0 mi ESE 13.8 mph - N/A   Partly Cloudy
6:58 PM 78.6 °F - 72.1 °F 80% 29.95 in 10.0 mi SE 13.8 mph - N/A   Partly Cloudy
7:58 PM 77.0 °F - 69.4 °F 77% 29.95 in 10.0 mi SE 10.4 mph - N/A   Clear
8:58 PM 76.3 °F - 69.3 °F 79% 29.96 in 10.0 mi SE 5.8 mph - N/A   Clear
9:58 PM 75.7 °F - 70.5 °F 84% 29.98 in 10.0 mi SE 6.9 mph - N/A   Clear
10:58 PM 76.1 °F - 71.4 °F 85% 29.98 in 10.0 mi SSE 9.2 mph - N/A   Clear
11:58 PM 76.5 °F - 71.1 °F 83% 29.98 in 10.0 mi SSE 8.1 mph - N/A   Partly Cloudy